| time (UTC) | temp F | wind direction | speed MPH | gust MPH | rain 1hr in | rain 24hr in | rain mn in | humidity % | barometer mb |
| 20260503015806 | 56 | 328 | 1.0 | 4.0 | 0.00 | 0.77 | 0.59 | 88 | 1023.2 |
| 20260503015534 | 56 | 254 | 1.0 | 4.0 | 0.00 | 0.77 | 0.59 | 89 | 1023.3 |
| 20260503015019 | 56 | 265 | 0.0 | 3.0 | 0.00 | 0.79 | 0.59 | 91 | 1023.3 |
| 20260503014517 | 56 | 233 | 1.0 | 3.0 | 0.00 | 0.80 | 0.59 | 93 | 1023.1 |
| 20260503013744 | 57 | 243 | 1.0 | 5.0 | 0.00 | 0.80 | 0.59 | 94 | 1023.1 |
| 20260503013245 | 57 | 247 | 1.0 | 5.0 | 0.00 | 0.81 | 0.59 | 95 | 1023.1 |
| 20260503012745 | 57 | 207 | 1.0 | 4.0 | 0.00 | 0.81 | 0.59 | 96 | 1022.9 |
| 20260503012516 | 57 | 103 | 0.0 | 3.0 | 0.00 | 0.83 | 0.59 | 96 | 1022.9 |
| 20260503011718 | 57 | 233 | 1.0 | 3.0 | 0.00 | 0.86 | 0.59 | 96 | 1022.8 |
| 20260503011155 | 57 | 245 | 1.0 | 3.0 | 0.00 | 0.89 | 0.59 | 96 | 1022.6 |
| 20260503010652 | 57 | 252 | 0.0 | 2.0 | 0.00 | 0.94 | 0.59 | 95 | 1022.6 |
| 20260503010152 | 57 | 252 | 0.0 | 0.0 | 0.00 | 1.03 | 0.59 | 94 | 1022.6 |
| 20260503005627 | 57 | 252 | 0.0 | 0.0 | 0.00 | 1.20 | 0.59 | 94 | 1022.6 |
| 20260503005119 | 57 | 252 | 0.0 | 0.0 | 0.00 | 1.36 | 0.59 | 94 | 1022.5 |
| 20260503004615 | 57 | 252 | 0.0 | 0.0 | 0.00 | 1.52 | 0.59 | 94 | 1022.5 |
| 20260503004052 | 58 | 252 | 0.0 | 0.0 | 0.00 | 1.58 | 0.59 | 94 | 1022.3 |
| 20260503003555 | 58 | 252 | 0.0 | 0.0 | 0.00 | 1.72 | 0.59 | 93 | 1022.2 |
| 20260503003052 | 58 | 252 | 0.0 | 0.0 | 0.00 | 1.85 | 0.59 | 94 | 1022.2 |
| 20260503002551 | 58 | 252 | 0.0 | 0.0 | 0.00 | 1.97 | 0.59 | 93 | 1022.1 |
| 20260503002024 | 59 | 252 | 0.0 | 0.0 | 0.00 | 2.06 | 0.59 | 93 | 1021.8 |
| 20260503001515 | 59 | 252 | 0.0 | 0.0 | 0.00 | 2.12 | 0.59 | 93 | 1021.7 |
| 20260503000950 | 59 | 252 | 0.0 | 1.0 | 0.00 | 2.31 | 0.59 | 93 | 1021.7 |
| 20260503000424 | 60 | 252 | 0.0 | 1.0 | 0.00 | 2.31 | 0.59 | 93 | 1021.6 |
| 20260502235917 | 60 | 252 | 0.0 | 0.0 | 0.00 | 2.31 | 0.59 | 93 | 1021.5 |
| 20260502235352 | 60 | 252 | 0.0 | 1.0 | 0.00 | 2.31 | 0.59 | 94 | 1021.5 |
| 20260502234826 | 60 | 252 | 1.0 | 2.0 | 0.00 | 2.32 | 0.59 | 94 | 1021.4 |
| 20260502234300 | 60 | 252 | 1.0 | 2.0 | 0.00 | 2.32 | 0.59 | 94 | 1021.3 |
| 20260502233800 | 60 | 252 | 1.0 | 2.0 | 0.00 | 2.32 | 0.59 | 94 | 1021.1 |
| 20260502233302 | 61 | 252 | 0.0 | 2.0 | 0.00 | 2.32 | 0.59 | 94 | 1021.2 |
| 20260502232758 | 61 | 252 | 0.0 | 1.0 | 0.00 | 2.32 | 0.59 | 94 | 1021.1 |
| 20260502232258 | 61 | 252 | 0.0 | 0.0 | 0.00 | 2.32 | 0.59 | 94 | 1021.1 |
| 20260502231752 | 61 | 252 | 0.0 | 1.0 | 0.00 | 2.32 | 0.59 | 93 | 1021.1 |
| 20260502231253 | 61 | 252 | 0.0 | 1.0 | 0.00 | 2.32 | 0.59 | 92 | 1021.1 |
| 20260502230737 | 61 | 252 | 0.0 | 1.0 | 0.00 | 2.32 | 0.59 | 92 | 1021.0 |
| 20260502230444 | 62 | 252 | 0.0 | 2.0 | 0.00 | 2.32 | 0.59 | 92 | 1021.0 |
| 20260502225643 | 62 | 252 | 0.0 | 2.0 | 0.00 | 2.32 | 0.59 | 92 | 1020.9 |
| 20260502225135 | 62 | 252 | 0.0 | 0.0 | 0.00 | 2.32 | 0.59 | 91 | 1020.8 |
| 20260502224634 | 62 | 252 | 0.0 | 0.0 | 0.00 | 2.32 | 0.59 | 91 | 1020.7 |
| 20260502224106 | 63 | 252 | 0.0 | 0.0 | 0.00 | 2.32 | 0.59 | 91 | 1020.7 |
| 20260502223554 | 63 | 252 | 0.0 | 0.0 | 0.00 | 2.32 | 0.59 | 90 | 1020.6 |
| 20260502223056 | 63 | 252 | 0.0 | 0.0 | 0.00 | 2.32 | 0.59 | 89 | 1020.6 |
| 20260502222527 | 64 | 252 | 0.0 | 0.0 | 0.00 | 2.32 | 0.59 | 89 | 1020.5 |
| 20260502222012 | 64 | 252 | 0.0 | 0.0 | 0.00 | 2.32 | 0.59 | 87 | 1020.5 |
| 20260502221513 | 64 | 252 | 0.0 | 0.0 | 0.00 | 2.32 | 0.59 | 87 | 1020.4 |
| 20260502220946 | 65 | 252 | 0.0 | 0.0 | 0.00 | 2.32 | 0.59 | 87 | 1020.2 |
| 20260502220443 | 65 | 252 | 0.0 | 2.0 | 0.00 | 2.32 | 0.59 | 87 | 1020.3 |
| 20260502215934 | 65 | 252 | 0.0 | 2.0 | 0.00 | 2.32 | 0.59 | 88 | 1020.3 |
| 20260502215432 | 65 | 252 | 0.0 | 2.0 | 0.00 | 2.32 | 0.59 | 87 | 1020.0 |
| 20260502215135 | 65 | 252 | 0.0 | 1.0 | 0.00 | 2.32 | 0.59 | 87 | 1020.1 |
| 20260502214355 | 65 | 252 | 0.0 | 2.0 | 0.00 | 2.32 | 0.59 | 87 | 1020.0 |
| 20260502214100 | 65 | 260 | 1.0 | 4.0 | 0.00 | 2.32 | 0.59 | 87 | 1020.0 |
| 20260502213302 | 65 | 242 | 2.0 | 6.0 | 0.00 | 2.32 | 0.59 | 87 | 1019.9 |
| 20260502213005 | 65 | 232 | 1.0 | 4.0 | 0.00 | 2.32 | 0.59 | 87 | 1019.6 |
| 20260502212837 | 65 | 247 | 2.0 | 6.0 | 0.00 | 2.32 | 0.59 | 88 | 1019.8 |
| 20260502211933 | 66 | 284 | 1.0 | 2.0 | 0.00 | 2.32 | 0.59 | 87 | 1019.6 |
| 20260502211159 | 66 | 284 | 0.0 | 2.0 | 0.00 | 2.32 | 0.59 | 86 | 1019.5 |
| 20260502210657 | 67 | 284 | 0.0 | 2.0 | 0.00 | 2.32 | 0.59 | 85 | 1019.4 |
| 20260502210130 | 67 | 284 | 1.0 | 3.0 | 0.00 | 2.32 | 0.59 | 86 | 1019.3 |
| 20260502205628 | 67 | 248 | 1.0 | 3.0 | 0.00 | 2.32 | 0.59 | 85 | 1019.3 |
| 20260502205100 | 68 | 249 | 0.0 | 1.0 | 0.00 | 2.32 | 0.59 | 85 | 1019.3 |
| 20260502204532 | 68 | 249 | 0.0 | 3.0 | 0.00 | 2.32 | 0.59 | 84 | 1019.2 |
| 20260502204014 | 69 | 249 | 1.0 | 3.0 | 0.00 | 2.32 | 0.59 | 84 | 1019.2 |
| 20260502203513 | 69 | 278 | 1.0 | 3.0 | 0.00 | 2.32 | 0.59 | 84 | 1019.2 |
| 20260502203014 | 70 | 273 | 1.0 | 3.0 | 0.00 | 2.33 | 0.59 | 84 | 1019.1 |
| 20260502202514 | 70 | 253 | 1.0 | 3.0 | 0.00 | 2.33 | 0.59 | 83 | 1019.1 |
| 20260502201954 | 71 | 300 | 1.0 | 2.0 | 0.00 | 2.33 | 0.59 | 82 | 1019.0 |
| 20260502201725 | 71 | 286 | 1.0 | 2.0 | 0.00 | 2.34 | 0.59 | 81 | 1019.0 |
| 20260502200955 | 71 | 286 | 1.0 | 2.0 | 0.00 | 2.36 | 0.59 | 81 | 1019.0 |
| 20260502200452 | 71 | 263 | 1.0 | 2.0 | 0.00 | 2.38 | 0.59 | 80 | 1018.9 |
| 20260502200219 | 71 | 264 | 1.0 | 4.0 | 0.00 | 2.42 | 0.59 | 80 | 1018.9 |
| 20260502195420 | 71 | 259 | 2.0 | 5.0 | 0.00 | 2.42 | 0.59 | 79 | 1018.9 |
| 20260502195146 | 71 | 245 | 2.0 | 4.0 | 0.00 | 2.42 | 0.59 | 79 | 1018.9 |
| 20260502194415 | 71 | 270 | 3.0 | 8.0 | 0.00 | 2.42 | 0.59 | 80 | 1018.8 |
| 20260502193845 | 71 | 250 | 2.0 | 8.0 | 0.00 | 2.42 | 0.59 | 79 | 1018.8 |
| 20260502193341 | 71 | 245 | 2.0 | 5.0 | 0.00 | 2.42 | 0.59 | 80 | 1018.7 |
| 20260502192827 | 71 | 259 | 3.0 | 5.0 | 0.00 | 2.42 | 0.59 | 79 | 1018.7 |
| 20260502192604 | 71 | 275 | 2.0 | 5.0 | 0.00 | 2.42 | 0.59 | 80 | 1018.4 |
| 20260502192326 | 71 | 253 | 2.0 | 5.0 | 0.00 | 2.42 | 0.59 | 79 | 1018.5 |
| 20260502191257 | 71 | 255 | 2.0 | 5.0 | 0.00 | 2.42 | 0.59 | 80 | 1018.3 |
| 20260502190745 | 71 | 255 | 4.0 | 8.0 | 0.00 | 2.42 | 0.59 | 79 | 1018.2 |
| 20260502190218 | 71 | 249 | 3.0 | 9.0 | 0.00 | 2.42 | 0.59 | 80 | 1018.2 |
| 20260502185947 | 71 | 254 | 2.0 | 5.0 | 0.00 | 2.42 | 0.59 | 80 | 1018.2 |
| 20260502185148 | 71 | 262 | 3.0 | 7.0 | 0.00 | 2.42 | 0.59 | 79 | 1018.1 |
| 20260502184621 | 71 | 249 | 3.0 | 9.0 | 0.00 | 2.42 | 0.59 | 78 | 1018.1 |
| 20260502184354 | 72 | 268 | 3.0 | 9.0 | 0.00 | 2.42 | 0.59 | 78 | 1018.1 |
| 20260502183612 | 72 | 187 | 3.0 | 7.0 | 0.00 | 2.42 | 0.59 | 78 | 1017.9 |
| 20260502183110 | 72 | 251 | 4.0 | 10.0 | 0.00 | 2.42 | 0.59 | 78 | 1018.0 |
| 20260502182545 | 72 | 258 | 4.0 | 10.0 | 0.00 | 2.42 | 0.59 | 78 | 1017.9 |
| 20260502182018 | 72 | 267 | 3.0 | 9.0 | 0.00 | 2.42 | 0.59 | 78 | 1017.9 |
| 20260502181742 | 72 | 205 | 3.0 | 8.0 | 0.00 | 2.42 | 0.59 | 78 | 1017.9 |
| 20260502181009 | 73 | 270 | 3.0 | 8.0 | 0.00 | 2.42 | 0.59 | 78 | 1017.9 |
| 20260502180444 | 72 | 289 | 2.0 | 7.0 | 0.00 | 2.42 | 0.59 | 80 | 1017.9 |
| 20260502170311 | 72 | 263 | 2.0 | 11.0 | 0.00 | 2.42 | 0.59 | 81 | 1017.9 |
| 20260502164218 | 72 | 276 | 5.0 | 10.0 | 0.00 | 2.42 | 0.59 | 81 | 1017.9 |
| 20260502163716 | 72 | 207 | 5.0 | 10.0 | 0.00 | 2.42 | 0.59 | 81 | 1018.0 |
| 20260502163214 | 72 | 266 | 5.0 | 12.0 | 0.00 | 2.42 | 0.59 | 81 | 1018.0 |
| 20260502162648 | 72 | 268 | 4.0 | 12.0 | 0.00 | 2.42 | 0.59 | 81 | 1018.0 |
| 20260502162118 | 72 | 249 | 4.0 | 13.0 | 0.00 | 2.42 | 0.59 | 82 | 1017.8 |
| 20260502161550 | 72 | 253 | 5.0 | 13.0 | 0.00 | 2.42 | 0.59 | 82 | 1017.6 |
| 20260502161048 | 72 | 257 | 4.0 | 9.0 | 0.00 | 2.42 | 0.59 | 82 | 1017.7 |
| 20260502160813 | 72 | 251 | 4.0 | 11.0 | 0.00 | 2.42 | 0.59 | 83 | 1017.6 |
| 20260502151945 | 74 | 272 | 4.0 | 10.0 | 0.00 | 2.42 | 0.59 | 83 | 1017.0 |
| 20260502151446 | 74 | 247 | 3.0 | 8.0 | 0.00 | 2.42 | 0.59 | 84 | 1016.8 |
| 20260502150920 | 74 | 257 | 3.0 | 8.0 | 0.00 | 2.42 | 0.59 | 83 | 1016.9 |
| 20260502150354 | 74 | 266 | 3.0 | 7.0 | 0.00 | 2.42 | 0.59 | 83 | 1016.9 |
| 20260502130733 | 69 | 310 | 1.0 | 3.0 | 0.00 | 2.42 | 0.59 | 96 | 1016.9 |
| 20260502130231 | 69 | 293 | 2.0 | 4.0 | 0.00 | 2.42 | 0.59 | 96 | 1016.5 |
| 20260502123330 | 69 | 212 | 1.0 | 3.0 | 0.00 | 2.42 | 0.59 | 96 | 1016.5 |
| 20260502122806 | 69 | 322 | 1.0 | 3.0 | 0.00 | 2.42 | 0.59 | 96 | 1016.4 |
| 20260502122529 | 69 | 305 | 1.0 | 6.0 | 0.00 | 2.42 | 0.59 | 96 | 1016.4 |
| 20260502121752 | 69 | 223 | 2.0 | 7.0 | 0.00 | 2.42 | 0.59 | 97 | 1016.1 |
| 20260502121249 | 69 | 258 | 2.0 | 6.0 | 0.00 | 2.42 | 0.59 | 97 | 1015.8 |
| 20260502120953 | 69 | 272 | 2.0 | 7.0 | 0.00 | 2.42 | 0.59 | 97 | 1015.7 |
| 20260502120213 | 69 | 312 | 2.0 | 7.0 | 0.00 | 2.42 | 0.59 | 97 | 1015.6 |
| 20260502115713 | 68 | 280 | 2.0 | 6.0 | 0.00 | 2.42 | 0.59 | 97 | 1015.6 |
| 20260502115145 | 68 | 280 | 3.0 | 7.0 | 0.00 | 2.42 | 0.59 | 97 | 1015.4 |
| 20260502114629 | 68 | 287 | 3.0 | 7.0 | 0.00 | 2.42 | 0.59 | 96 | 1015.1 |
| 20260502114116 | 68 | 294 | 3.0 | 7.0 | 0.00 | 2.42 | 0.59 | 96 | 1015.2 |
| 20260502113550 | 68 | 293 | 3.0 | 7.0 | 0.00 | 2.42 | 0.59 | 96 | 1015.4 |
| 20260502113037 | 68 | 272 | 2.0 | 8.0 | 0.00 | 2.42 | 0.59 | 96 | 1015.1 |
| 20260502112525 | 68 | 280 | 2.0 | 8.0 | 0.00 | 2.42 | 0.59 | 96 | 1014.9 |
| 20260502111958 | 68 | 289 | 3.0 | 8.0 | 0.00 | 2.42 | 0.59 | 96 | 1014.6 |
| 20260502111714 | 68 | 266 | 3.0 | 8.0 | 0.00 | 2.42 | 0.59 | 96 | 1014.6 |
| 20260502110932 | 68 | 271 | 3.0 | 6.0 | 0.00 | 2.42 | 0.59 | 96 | 1014.3 |
| 20260502110430 | 68 | 276 | 3.0 | 7.0 | 0.00 | 2.42 | 0.59 | 96 | 1014.1 |
| 20260502110157 | 68 | 274 | 2.0 | 7.0 | 0.00 | 2.42 | 0.59 | 96 | 1014.0 |
| 20260502105423 | 68 | 308 | 2.0 | 6.0 | 0.00 | 2.42 | 0.59 | 96 | 1013.7 |
| 20260502104923 | 68 | 287 | 1.0 | 5.0 | 0.00 | 2.42 | 0.59 | 96 | 1013.5 |
| 20260502104420 | 68 | 303 | 1.0 | 3.0 | 0.00 | 2.42 | 0.59 | 95 | 1013.3 |
| 20260502103907 | 68 | 303 | 1.0 | 3.0 | 0.00 | 2.42 | 0.59 | 95 | 1013.2 |
| 20260502103357 | 68 | 318 | 2.0 | 4.0 | 0.00 | 2.42 | 0.59 | 95 | 1013.1 |
| 20260502102855 | 68 | 318 | 3.0 | 6.0 | 0.00 | 2.42 | 0.59 | 95 | 1013.1 |
| 20260502102350 | 68 | 289 | 3.0 | 6.0 | 0.00 | 2.42 | 0.59 | 95 | 1013.0 |
| 20260502102120 | 68 | 326 | 2.0 | 4.0 | 0.00 | 2.42 | 0.59 | 95 | 1012.9 |
| 20260502101347 | 68 | 322 | 2.0 | 4.0 | 0.00 | 2.42 | 0.59 | 94 | 1012.5 |
| 20260502100820 | 68 | 290 | 3.0 | 6.0 | 0.00 | 2.42 | 0.59 | 94 | 1012.5 |
| 20260502100320 | 68 | 288 | 3.0 | 6.0 | 0.00 | 2.42 | 0.59 | 94 | 1012.3 |
| 20260502091416 | 69 | 290 | 5.0 | 12.0 | 0.00 | 2.42 | 0.59 | 93 | 1011.3 |
| 20260502090611 | 69 | 282 | 5.0 | 12.0 | 0.00 | 2.42 | 0.59 | 93 | 1011.4 |
| 20260502071208 | 67 | 24 | 1.0 | 6.0 | 0.01 | 2.42 | 0.59 | 98 | 1009.8 |
| 20260502070705 | 67 | 285 | 2.0 | 6.0 | 0.01 | 2.42 | 0.59 | 98 | 1009.9 |
| 20260502070143 | 67 | 289 | 3.0 | 7.0 | 0.01 | 2.42 | 0.59 | 98 | 1010.1 |
| 20260502065644 | 67 | 275 | 2.0 | 7.0 | 0.01 | 2.42 | 0.59 | 98 | 1010.2 |
| 20260502065146 | 67 | 304 | 3.0 | 5.0 | 0.01 | 2.42 | 0.59 | 98 | 1010.1 |
| 20260502065139 | 67 | 263 | 2.0 | 6.0 | 0.01 | 2.42 | 0.59 | 98 | 1010.2 |
| 20260502064356 | 67 | 307 | 5.0 | 9.0 | 0.02 | 2.42 | 0.59 | 98 | 1010.1 |
| 20260502063559 | 67 | 291 | 5.0 | 9.0 | 0.04 | 2.42 | 0.59 | 98 | 1010.2 |
| 20260502063100 | 67 | 284 | 4.0 | 9.0 | 0.04 | 2.42 | 0.59 | 98 | 1010.0 |
| 20260502062558 | 67 | 270 | 5.0 | 9.0 | 0.05 | 2.42 | 0.59 | 98 | 1010.2 |
| 20260502062059 | 67 | 262 | 4.0 | 9.0 | 0.07 | 2.42 | 0.59 | 98 | 1010.1 |
| 20260502061814 | 68 | 275 | 3.0 | 8.0 | 0.09 | 2.42 | 0.59 | 98 | 1010.1 |
| 20260502061044 | 68 | 187 | 5.0 | 11.0 | 0.09 | 2.41 | 0.58 | 98 | 1009.9 |
| 20260502060543 | 68 | 266 | 4.0 | 11.0 | 0.11 | 2.41 | 0.58 | 98 | 1010.2 |
| 20260502060041 | 68 | 247 | 3.0 | 7.0 | 0.14 | 2.41 | 0.58 | 98 | 1009.3 |
| 20260502055513 | 68 | 106 | 5.0 | 13.0 | 0.17 | 2.41 | 0.58 | 98 | 1008.0 |
| 20260502055011 | 68 | 187 | 5.0 | 13.0 | 0.19 | 2.41 | 0.58 | 98 | 1009.0 |
| 20260502054509 | 67 | 335 | 4.0 | 11.0 | 0.21 | 2.40 | 0.57 | 99 | 1008.3 |
| 20260502054005 | 67 | 101 | 3.0 | 10.0 | 0.22 | 2.39 | 0.56 | 98 | 1009.7 |
| 20260502053501 | 67 | 334 | 2.0 | 6.0 | 0.23 | 2.38 | 0.55 | 98 | 1010.1 |
| 20260502052959 | 67 | 287 | 2.0 | 4.0 | 0.26 | 2.38 | 0.55 | 98 | 1010.4 |
| 20260502052459 | 67 | 33 | 3.0 | 5.0 | 0.26 | 2.37 | 0.54 | 98 | 1010.0 |
| 20260502051957 | 67 | 38 | 3.0 | 8.0 | 0.26 | 2.35 | 0.52 | 98 | 1010.9 |
| 20260502051455 | 67 | 256 | 2.0 | 7.0 | 0.26 | 2.33 | 0.50 | 98 | 1011.6 |
| 20260502050950 | 67 | 210 | 2.0 | 6.0 | 0.27 | 2.31 | 0.48 | 98 | 1011.0 |
| 20260502050427 | 67 | 177 | 3.0 | 8.0 | 0.26 | 2.29 | 0.46 | 98 | 1011.5 |
| 20260502045917 | 67 | 270 | 5.0 | 10.0 | 0.25 | 2.27 | 0.44 | 98 | 1011.7 |
| 20260502045417 | 67 | 285 | 4.0 | 10.0 | 0.24 | 2.24 | 0.41 | 98 | 1011.7 |
| 20260502044913 | 67 | 305 | 3.0 | 7.0 | 0.23 | 2.21 | 0.39 | 98 | 1011.7 |
| 20260502044409 | 67 | 302 | 4.0 | 7.0 | 0.23 | 2.19 | 0.36 | 98 | 1011.8 |
| 20260502043909 | 67 | 277 | 3.0 | 7.0 | 0.22 | 2.16 | 0.34 | 98 | 1012.0 |
| 20260502043407 | 66 | 359 | 2.0 | 6.0 | 0.23 | 2.14 | 0.31 | 98 | 1011.8 |
| 20260502042839 | 66 | 332 | 2.0 | 6.0 | 0.23 | 2.12 | 0.29 | 98 | 1011.6 |
| 20260502042338 | 66 | 3 | 1.0 | 6.0 | 0.23 | 2.10 | 0.27 | 98 | 1011.5 |
| 20260502041826 | 66 | 343 | 0.0 | 0.0 | 0.22 | 2.08 | 0.25 | 98 | 1011.6 |
| 20260502041559 | 66 | 343 | 0.0 | 0.0 | 0.21 | 2.06 | 0.23 | 98 | 1011.5 |
| 20260502040801 | 66 | 103 | 0.0 | 2.0 | 0.20 | 2.04 | 0.21 | 98 | 1011.6 |
| 20260502040254 | 66 | 89 | 1.0 | 6.0 | 0.18 | 2.02 | 0.19 | 98 | 1011.5 |
| 20260502035758 | 66 | 64 | 1.0 | 6.0 | 0.18 | 2.01 | 0.18 | 98 | 1011.9 |
| 20260502035238 | 66 | 56 | 0.0 | 3.0 | 0.17 | 1.99 | 0.17 | 98 | 1012.2 |
| 20260502035002 | 66 | 151 | 0.0 | 2.0 | 0.18 | 1.98 | 0.15 | 98 | 1012.7 |
| 20260502034229 | 66 | 151 | 1.0 | 6.0 | 0.20 | 1.96 | 0.13 | 98 | 1012.7 |
| 20260502033728 | 66 | 168 | 3.0 | 8.0 | 0.18 | 1.92 | 0.10 | 98 | 1012.4 |
| 20260502033224 | 66 | 243 | 3.0 | 8.0 | 0.18 | 1.91 | 0.08 | 98 | 1012.7 |
| 20260502032724 | 66 | 260 | 5.0 | 11.0 | 0.16 | 1.88 | 0.05 | 98 | 1012.4 |
| 20260502032204 | 66 | 245 | 4.0 | 11.0 | 0.15 | 1.86 | 0.03 | 98 | 1012.5 |
| 20260502031707 | 66 | 242 | 3.0 | 6.0 | 0.15 | 1.85 | 0.02 | 98 | 1012.0 |
| 20260502031204 | 66 | 230 | 3.0 | 6.0 | 0.17 | 1.85 | 0.02 | 98 | 1011.3 |
| 20260502030945 | 66 | 272 | 2.0 | 5.0 | 0.18 | 1.84 | 0.01 | 98 | 1011.4 |
| 20260502030422 | 66 | 341 | 2.0 | 8.0 | 0.18 | 1.83 | 0.01 | 98 | 1011.2 |
| 20260502025639 | 66 | 334 | 2.0 | 8.0 | 0.18 | 1.83 | 1.83 | 98 | 1011.1 |
| 20260502025139 | 66 | 6 | 1.0 | 4.0 | 0.17 | 1.81 | 1.81 | 97 | 1011.1 |
| 20260502024857 | 66 | 97 | 1.0 | 4.0 | 0.17 | 1.80 | 1.80 | 97 | 1011.4 |
| 20260502024127 | 66 | 119 | 1.0 | 4.0 | 0.13 | 1.75 | 1.75 | 97 | 1011.6 |
| 20260502023835 | 66 | 141 | 2.0 | 5.0 | 0.12 | 1.74 | 1.74 | 97 | 1011.4 |
| 20260502023108 | 66 | 131 | 2.0 | 6.0 | 0.12 | 1.73 | 1.73 | 97 | 1011.3 |
| 20260502022829 | 66 | 116 | 1.0 | 4.0 | 0.12 | 1.72 | 1.72 | 97 | 1011.7 |
| 20260502022045 | 66 | 97 | 1.0 | 6.0 | 0.13 | 1.71 | 1.71 | 97 | 1011.8 |
| 20260502021542 | 66 | 133 | 1.0 | 6.0 | 0.15 | 1.69 | 1.69 | 97 | 1011.7 |
| 20260502021042 | 66 | 148 | 1.0 | 4.0 | 0.16 | 1.68 | 1.68 | 97 | 1011.7 |
| 20260502020541 | 66 | 111 | 1.0 | 7.0 | 0.19 | 1.66 | 1.66 | 97 | 1012.2 |